Preview of NWS' New Version of Forecast
This preview is not operational and should not be used for support decisions.

Regional Weather Roundup (RWR)

Issued by Shreveport, LA (SHV)

                            
000
ASUS44 KSHV 160810
RWRSHV

WEATHER ROUNDUP FOR THE FOUR STATE AREA
NATIONAL WEATHER SERVICE SHREVEPORT LA
300 AM CDT TUE OCT 16 2018

NOTE:  "FAIR" INDICATES FEW OR NO CLOUDS BELOW 12000 FEET
WITH NO SIGNIFICANT WEATHER AND/OR OBSTRUCTIONS TO VISIBILITY.

!LAZ001-LAZ014-TXZ097-160900
SHREVEPORT...MONROE...TEXARKANA RADIOS
  
CITY           SKY/WX    TMP DP  RH WIND       PRES   REMARKS
SHREVEPORT     LGT RAIN  52  51  97 N14       30.17F                  
MONROE         CLOUDY    54  52  93 NE12      30.18F                  
NATCHITOCHES   CLOUDY    55  54  95 NE9       30.13F                  
TEXARKANA      CLOUDY    47  45  93 NE8       30.25F                  
$$

!LAZ001-LAZ014-TXZ097-160900
OTHER LOCATIONS...
  
CITY           SKY/WX    TMP DP  RH WIND       PRES   REMARKS
DOWNTOWN SHV   LGT RAIN  53  51  93 N12       30.18F                  
BOSSIER CITY   RAIN      51  51  99 N10       30.17S                  
RUSTON         CLOUDY    51  50  95 NE10      30.21S                  
LITTLE ROCK    CLOUDY    45  41  86 NE8       30.30S                  
EL DORADO      LGT RAIN  48  48 100 N12       30.22F                  
JACKSON        CLOUDY    59  57  93 N9        30.15S                  
NEW ORLEANS    CLOUDY    76  75  97 N5        30.04F                  
HOUSTON        CLOUDY    57  57 100 N10       30.05F FOG              
LUFKIN         HVY RAIN  54  54 100 VRB7      30.11F                  
TYLER          CLOUDY    49  49 100 NE10      30.19S                  
DAL FT WORTH   RAIN      45  43  93 N15       30.23F FOG              
$$


!TXZ136-TXZ165-160900
TYLER...LUFKIN RADIOS
  
CITY           SKY/WX    TMP DP  RH WIND       PRES   REMARKS
TYLER          CLOUDY    49  49 100 NE10      30.19S                  
GILMER         TSTM      49  48  97 N12       30.21S                  
LONGVIEW       LGT RAIN  50  50 100 N8G20     30.19R                  
LUFKIN         HVY RAIN  54  54 100 VRB7      30.11F                  
$$

!TXZ136-TXZ165-160900
OTHER LOCATIONS...
  
CITY           SKY/WX    TMP DP  RH WIND       PRES   REMARKS
NACOGDOCHES    HVY RAIN  52  52 100 VRB7      30.14F                  
BEAUMONT       CLOUDY    69  66  90 NE9       30.02R                  
HOUSTON        CLOUDY    57  57 100 N10       30.05F FOG              
COLLEGE STN    HVY RAIN  49  49 100 N16G22    30.10F FOG              
AUSTIN         LGT RAIN  49  46  90 N10       30.15S                  
DAL FT WORTH   RAIN      45  43  93 N15       30.23F FOG              
TEXARKANA      CLOUDY    47  45  93 NE8       30.25F                  
SHREVEPORT     LGT RAIN  52  51  97 N14       30.17F                  
FORT POLK      LGT RAIN  59  58  96 N7        30.06F FOG              
LAKE CHARLES   CLOUDY    68  65  90 NE9       30.03S                  
$$